Wayne, NE

4:52 AM CST on February 23, 2018 (GMT -0600)
Wayne Municipal

Weather History for KLCG - February, 2012

Change the Weather History Date:

Sunday, February 19, 2012

  Actual Average (KOFK) Record (KOFK)
Temperature  
Mean Temperature 32 °F -  
Max Temperature 45 °F 38 °F 72 °F (1930)
Min Temperature 18 °F 18 °F -25 °F (1936)
Degree Days  
Heating Degree Days 34    
Moisture  
Dew Point 23 °F    
Average Humidity 76    
Maximum Humidity 93    
Minimum Humidity 44    
Precipitation  
Precipitation 0.00 in - - ()
Sea Level Pressure  
Sea Level Pressure 30.00 in    
Wind  
Wind Speed 10 mph (South)    
Max Wind Speed 22 mph    
Max Gust Speed 28 mph    
Visibility 10 miles    
Events      
Averages and records for this station are not official NWS values.
T = Trace of Precipitation, MM = Missing Value Source: NWS Daily Summary

Daily Weather History Graph

Daily Weather History Graph

Search for Another Location

Airport or City:

Trip Planner

Search our weather history database for the weather conditions in past years. The results will help you decide how hot, cold, wet, or windy it might be!

Date:

Astronomy

Feb. 19, 2012 Rise Set
Actual Time 7:19 AM CST 6:04 PM CST
Civil Twilight 6:50 AM CST 6:33 PM CST
Nautical Twilight 6:18 AM CST 7:06 PM CST
Astronomical Twilight 5:45 AM CST 7:38 PM CST
Moon 5:42 AM CST (2/19) 4:06 PM CST (2/19)
Length of Visible Light 11h 42m
Length of Day
10h 45m
Waning Crescent, 5% of the Moon is Illuminated
Feb 19
Waning Crescent
Feb 21
New
Feb 29
First Quarter
Mar 8
Full
Mar 14
Last Quarter

Hourly Weather History & Observations

Time (CST) Temp. Windchill Dew Point Humidity Pressure Visibility Wind Dir Wind Speed Gust Speed Precip Events Conditions
12:15 AM 24.4 °F 14.9 °F 20.1 °F 84% 30.09 in 10.0 mi South 9.2 mph - N/A   Clear
12:35 AM 22.6 °F 12.6 °F 19.2 °F 87% 30.08 in 10.0 mi South 9.2 mph - N/A   Clear
12:55 AM 22.5 °F 13.2 °F 19.0 °F 87% 30.09 in 10.0 mi South 8.1 mph - N/A   Clear
1:15 AM 23.2 °F 15.0 °F 19.4 °F 85% 30.08 in 10.0 mi South 6.9 mph - N/A   Clear
1:35 AM 21.0 °F 16.2 °F 18.1 °F 89% 30.08 in 10.0 mi SSE 3.5 mph - N/A   Clear
1:55 AM 19.6 °F 13.0 °F 17.1 °F 90% 30.07 in 10.0 mi South 4.6 mph - N/A   Clear
2:15 AM 21.4 °F 13.8 °F 18.3 °F 88% 30.07 in 10.0 mi South 5.8 mph - N/A   Clear
2:35 AM 19.9 °F - 17.2 °F 89% 30.07 in 10.0 mi Calm Calm - N/A   Clear
2:55 AM 21.2 °F 13.6 °F 18.3 °F 89% 30.06 in 10.0 mi SSW 5.8 mph - N/A   Clear
3:15 AM 19.8 °F 11.9 °F 17.4 °F 91% 30.06 in 10.0 mi SW 5.8 mph - N/A   Clear
3:35 AM 18.3 °F 13.1 °F 16.3 °F 92% 30.06 in 10.0 mi SSW 3.5 mph - N/A   Clear
3:55 AM 20.5 °F 11.7 °F 17.8 °F 89% 30.05 in 10.0 mi SSW 6.9 mph - N/A   Clear
4:35 AM 21.2 °F 11.7 °F 18.5 °F 89% 30.05 in 10.0 mi South 8.1 mph - N/A   Clear
4:55 AM 21.7 °F 12.3 °F 18.9 °F 89% 30.04 in 10.0 mi South 8.1 mph - N/A   Clear
5:15 AM 21.2 °F 16.4 °F 18.1 °F 88% 30.05 in 10.0 mi SW 3.5 mph - N/A   Clear
5:35 AM 20.5 °F 11.7 °F 18.3 °F 91% 30.04 in 10.0 mi South 6.9 mph - N/A   Clear
5:55 AM 21.4 °F 10.4 °F 19.2 °F 91% 30.04 in 10.0 mi South 10.4 mph - N/A   Clear
6:15 AM 20.7 °F 11.0 °F 18.7 °F 92% 30.05 in 10.0 mi SSW 8.1 mph - N/A   Mostly Cloudy
6:35 AM 22.5 °F 14.1 °F 20.3 °F 91% 30.05 in 10.0 mi SSW 6.9 mph - N/A   Overcast
7:15 AM 20.3 °F 12.5 °F 18.5 °F 93% 30.05 in 10.0 mi South 5.8 mph - N/A   Clear
7:35 AM 19.4 °F 10.4 °F 17.8 °F 93% 30.05 in 10.0 mi South 6.9 mph - N/A   Clear
7:55 AM 20.8 °F 13.2 °F 19.2 °F 93% 30.05 in 10.0 mi South 5.8 mph - N/A   Clear
8:15 AM 23.5 °F 13.7 °F 21.6 °F 92% 30.05 in 10.0 mi South 9.2 mph - N/A   Clear
8:35 AM 25.9 °F 16.0 °F 23.2 °F 90% 30.05 in 10.0 mi South 10.4 mph - N/A   Clear
8:55 AM 28.4 °F 19.7 °F 24.8 °F 86% 30.05 in 10.0 mi SSW 9.2 mph - N/A   Clear
9:15 AM 31.1 °F 21.4 °F 26.2 °F 82% 30.04 in 10.0 mi South 12.7 mph - N/A   Clear
9:35 AM 33.1 °F 22.2 °F 27.0 °F 78% 30.04 in 10.0 mi South 17.3 mph - N/A   Clear
9:55 AM 34.7 °F 23.4 °F 26.6 °F 72% 30.04 in 10.0 mi South 20.7 mph 25.3 mph N/A   Clear
10:15 AM 35.6 °F 25.9 °F 25.7 °F 67% 30.03 in 10.0 mi South 16.1 mph - N/A   Clear
11:15 AM 39.4 °F 29.8 °F 25.0 °F 56% 30.03 in 10.0 mi South 19.6 mph 25.3 mph N/A   Clear
12:15 PM 42.4 °F 34.1 °F 24.8 °F 50% 30.00 in 10.0 mi South 18.4 mph - N/A   Clear
12:35 PM 42.8 °F 34.0 °F 24.6 °F 49% 29.98 in 10.0 mi South 20.7 mph - N/A   Clear
12:55 PM 43.2 °F 35.0 °F 24.8 °F 48% 29.98 in 10.0 mi South 18.4 mph 23.0 mph N/A   Clear
1:35 PM 44.6 °F 36.1 °F 23.9 °F 44% 29.96 in 10.0 mi South 21.9 mph 27.6 mph N/A   Clear
1:55 PM 45.3 °F 37.3 °F 24.4 °F 44% 29.96 in 10.0 mi South 20.7 mph 24.2 mph N/A   Clear
2:15 PM 44.8 °F 37.4 °F 25.0 °F 46% 29.96 in 10.0 mi SSW 17.3 mph 24.2 mph N/A   Clear
2:35 PM 45.0 °F 37.6 °F 25.7 °F 47% 29.95 in 10.0 mi South 17.3 mph - N/A   Clear
2:55 PM 44.6 °F 36.6 °F 26.1 °F 48% 29.95 in 10.0 mi South 19.6 mph 25.3 mph N/A   Clear
3:15 PM 44.1 °F 36.2 °F 26.4 °F 50% 29.95 in 10.0 mi South 18.4 mph - N/A   Clear
3:35 PM 43.3 °F 35.2 °F 26.4 °F 51% 29.94 in 10.0 mi South 18.4 mph - N/A   Clear
3:55 PM 41.7 °F 33.4 °F 27.5 °F 57% 29.94 in 10.0 mi SSE 17.3 mph - N/A   Clear
4:15 PM 41.0 °F 31.9 °F 27.5 °F 59% 29.94 in 10.0 mi SSE 19.6 mph 24.2 mph N/A   Clear
4:35 PM 40.1 °F 31.3 °F 27.5 °F 61% 29.93 in 10.0 mi SSE 17.3 mph - N/A   Clear
4:55 PM 39.2 °F 30.2 °F 28.0 °F 64% 29.93 in 10.0 mi SSE 17.3 mph - N/A   Clear
5:15 PM 38.5 °F 29.9 °F 27.7 °F 65% 29.92 in 10.0 mi SSE 15.0 mph - N/A   Clear
5:35 PM 38.3 °F 29.3 °F 28.4 °F 68% 29.92 in 10.0 mi SSE 16.1 mph - N/A   Clear
5:55 PM 36.7 °F 28.4 °F 28.4 °F 72% 29.93 in 10.0 mi SSE 12.7 mph - N/A   Clear
6:15 PM 35.6 °F 27.1 °F 28.2 °F 75% 29.93 in 10.0 mi SSE 12.7 mph - N/A   Clear
6:35 PM 34.3 °F 24.6 °F 28.0 °F 78% 29.93 in 10.0 mi SSE 15.0 mph - N/A   Clear
6:55 PM 33.8 °F 25.3 °F 28.0 °F 79% 29.94 in 10.0 mi SSE 11.5 mph - N/A   Clear
7:15 PM 33.3 °F 23.2 °F 27.7 °F 80% 29.93 in 10.0 mi SSE 15.0 mph - N/A   Clear
7:35 PM 33.1 °F 23.0 °F 27.5 °F 80% 29.93 in 10.0 mi SE 15.0 mph - N/A   Clear
7:55 PM 32.5 °F 22.3 °F 27.5 °F 82% 29.93 in 10.0 mi SE 15.0 mph - N/A   Clear
9:15 PM 32.0 °F 23.0 °F 28.0 °F 85% 29.92 in 10.0 mi SE 11.5 mph - N/A   Clear
9:35 PM 32.0 °F 22.5 °F 28.0 °F 85% 29.92 in 10.0 mi SE 12.7 mph - N/A   Clear
9:55 PM 32.2 °F 22.7 °F 28.0 °F 85% 29.92 in 10.0 mi SE 12.7 mph - N/A   Clear
10:15 PM 32.0 °F 23.6 °F 27.7 °F 84% 29.92 in 10.0 mi SE 10.4 mph - N/A   Clear
11:35 PM 35.2 °F 25.0 °F 28.2 °F 76% 29.92 in 10.0 mi SSE 17.3 mph - N/A   Overcast
11:55 PM 35.6 °F 25.9 °F 28.0 °F 74% 29.91 in 10.0 mi SSE 16.1 mph - N/A   Overcast